Sitka, AK

3:54 AM AKDT on May 24, 2017 (GMT -0800)
Sitka Rocky Gutierrez

Weather History for PASI - June, 2013

Change the Weather History Date:

Tuesday, June 18, 2013

  Actual Average Record
Temperature  
Mean Temperature 56 °F -  
Max Temperature 62 °F 58 °F 70 °F (2004)
Min Temperature 53 °F 47 °F 43 °F (1951)
Degree Days  
Heating Degree Days 8    
Growing Degree Days 6 (Base 50)    
Moisture  
Dew Point 54 °F    
Average Humidity 95    
Maximum Humidity 100    
Minimum Humidity 80    
Precipitation  
Precipitation 0.07 in - - ()
Sea Level Pressure  
Sea Level Pressure 29.94 in    
Wind  
Wind Speed 8 mph (SW)    
Max Wind Speed 13 mph    
Max Gust Speed -    
Visibility 9 miles    
Events Rain    
Averages and records for this station are not official NWS values.
T = Trace of Precipitation, MM = Missing Value Source: NWS Daily Summary

Daily Weather History Graph

Daily Weather History Graph

Search for Another Location

Airport or City:

Trip Planner

Search our weather history database for the weather conditions in past years. The results will help you decide how hot, cold, wet, or windy it might be!

Date:

Astronomy

Jun. 18, 2013 Rise Set
Actual Time 4:05 AM AKDT 9:59 PM AKDT
Civil Twilight 2:57 AM AKDT 11:08 PM AKDT
Nautical Twilight 1:35 AM AKDT 12:30 AM AKDT
Astronomical Twilight Sun does not set Sun does not set
Moon 4:03 PM AKDT (6/18) 1:17 AM AKDT (6/18)
Length of Visible Light 20h 11m
Length of Day
17h 53m
Waxing Gibbous, 72% of the Moon is Illuminated
Jun 18
Waxing Gibbous
Jun 23
Full
Jun 29
Last Quarter
Jul 7
New
Jul 15
First Quarter

Hourly Weather History & Observations

Time (AKDT) Temp. Dew Point Humidity Pressure Visibility Wind Dir Wind Speed Gust Speed Precip Events Conditions
12:22 AM 55.4 °F 55.4 °F 100% 29.91 in 10.0 mi West 11.5 mph - N/A   Overcast
12:32 AM 55.4 °F 55.4 °F 100% 29.91 in 10.0 mi West 10.4 mph - 0.00 in Rain Light Rain
12:41 AM 55.4 °F 55.4 °F 100% 29.92 in 10.0 mi WSW 8.1 mph - 0.00 in Rain Light Rain
12:53 AM 55.0 °F 55.0 °F 100% 29.92 in 9.0 mi SW 12.7 mph - 0.00 in   Overcast
1:02 AM 53.6 °F 53.6 °F 100% 29.92 in 9.0 mi SSW 10.4 mph - 0.00 in Rain Light Rain
1:19 AM 53.6 °F 53.6 °F 100% 29.92 in 10.0 mi South 3.5 mph - 0.00 in   Overcast
1:29 AM 53.6 °F 53.6 °F 100% 29.92 in 4.0 mi South 5.8 mph - 0.02 in Rain Rain
1:53 AM 54.0 °F 54.0 °F 100% 29.92 in 10.0 mi SSW 9.2 mph - 0.03 in   Overcast
2:00 AM 53.6 °F 53.6 °F 100% 29.92 in 9.0 mi SSW 9.2 mph - N/A   Overcast
2:35 AM 53.6 °F 53.6 °F 100% 29.92 in 9.0 mi SW 10.4 mph - N/A   Overcast
2:53 AM 54.0 °F 53.1 °F 97% 29.92 in 10.0 mi SW 10.4 mph - N/A   Overcast
3:53 AM 53.1 °F 53.1 °F 100% 29.92 in 10.0 mi SW 9.2 mph - 0.01 in   Overcast
4:53 AM 53.1 °F 52.0 °F 96% 29.92 in 10.0 mi West 5.8 mph - N/A   Overcast
5:53 AM 53.1 °F 52.0 °F 96% 29.91 in 10.0 mi West 4.6 mph - N/A   Overcast
6:53 AM 53.1 °F 53.1 °F 100% 29.91 in 6.0 mi SW 3.5 mph - 0.02 in Rain Light Rain
7:53 AM 53.1 °F 53.1 °F 100% 29.91 in 9.0 mi SW 3.5 mph - 0.00 in   Overcast
8:53 AM 54.0 °F 53.1 °F 97% 29.92 in 8.0 mi West 5.8 mph - N/A   Overcast
9:53 AM 54.0 °F 53.1 °F 97% 29.93 in 7.0 mi West 3.5 mph - 0.01 in   Overcast
10:53 AM 54.0 °F 53.1 °F 97% 29.92 in 9.0 mi West 4.6 mph - N/A   Overcast
11:53 AM 55.0 °F 53.1 °F 93% 29.93 in 9.0 mi WSW 5.8 mph - N/A   Overcast
12:53 PM 55.9 °F 54.0 °F 93% 29.94 in 9.0 mi WNW 3.5 mph - N/A   Overcast
1:02 PM 55.4 °F 53.6 °F 94% 29.93 in 10.0 mi Calm Calm - N/A   Scattered Clouds
1:53 PM 57.9 °F 55.0 °F 90% 29.93 in 10.0 mi Calm Calm - N/A   Clear
2:53 PM 60.1 °F 55.0 °F 83% 29.93 in 10.0 mi SW 8.1 mph - N/A   Clear
3:53 PM 60.1 °F 54.0 °F 80% 29.94 in 10.0 mi SW 9.2 mph - N/A   Partly Cloudy
4:26 PM 60.8 °F 55.4 °F 82% 29.94 in 10.0 mi SW 10.4 mph - N/A   Overcast
4:51 PM 57.2 °F 53.6 °F 88% 29.95 in 10.0 mi SW 9.2 mph - N/A   Overcast
4:53 PM 57.9 °F 54.0 °F 87% 29.95 in 10.0 mi SW 10.4 mph - N/A   Overcast
5:53 PM 57.0 °F 54.0 °F 89% 29.96 in 10.0 mi SW 10.4 mph - N/A   Overcast
6:53 PM 55.9 °F 54.0 °F 93% 29.98 in 9.0 mi SW 8.1 mph - N/A   Overcast
7:53 PM 55.0 °F 54.0 °F 96% 29.98 in 10.0 mi WSW 3.5 mph - N/A   Overcast
8:53 PM 55.0 °F 54.0 °F 96% 29.98 in 9.0 mi Calm Calm - N/A   Overcast
9:53 PM 55.9 °F 54.0 °F 93% 29.98 in 10.0 mi Calm Calm - N/A   Overcast
10:53 PM 55.0 °F 54.0 °F 96% 29.99 in 10.0 mi WSW 4.6 mph - N/A   Overcast
11:53 PM 55.0 °F 54.0 °F 96% 30.00 in 10.0 mi WSW 3.5 mph - N/A   Overcast